Regional Weather Roundup
Issued by NWS Northern Indiana

Home | Current Version | Previous Version | Text Only | Print | Product List | Glossary On
Versions: 1 2 3 4 5 6 7 8 9 10 11 12 13 14 15 16 17 18 19 20 21 22 23 24 25 26 27 28 29 30 31 32 33 34 35 36 37 38 39 40 41 42 43 44 45 46 47 48 49 50
683
ASUS43 KIWX 252010
RWRIWX

KIWX WEATHER ROUNDUP
NATIONAL WEATHER SERVICE NORTHERN INDIANA
400 PM EDT THU AUG 25 2016

NOTE: "FAIR" INDICATES FEW OR NO CLOUDS BELOW 12,000 FEET WITH NO
SIGNIFICANT WEATHER AND/OR OBSTRUCTIONS TO VISIBILITY.

* THESE STATIONS ARE NOT UNDER NWS QUALITY CONTROL. THEY ALSO MAY NOT
  REPORT WEATHER SUCH AS PRECIPITATION OR FOG.

INZ001>027-252100-
NORTHERN INDIANA

CITY           SKY/WX    TMP DP  RH WIND       PRES   REMARKS
GARY*          MOSUNNY   81  72  74 NE6       30.04F
VALPARAISO     PTSUNNY   80  71  74 W6        30.04F
MICHIGAN CITY* CLOUDY    79  70  73 MISG      30.05S
LAPORTE*       PTSUNNY   81  75  83 NW7       30.05S
KNOX*          PTSUNNY   79  50  36 W7        30.04F
SOUTH BEND     PTSUNNY   78  71  79 NW12      30.05S
ELKHART*       PTSUNNY   79  72  78 W14       30.04S
GOSHEN         CLOUDY    79  69  71 W14       30.03F
MONTICELLO*    CLOUDY    82  67  60 W7        30.05S
LOGANSPORT*    MOSUNNY   82  70  65 W12       30.06F
ROCHESTER*     MOSUNNY   82  73  74 W8        30.05S
WARSAW*        PTSUNNY   81  79  94 W10       30.04S
ANGOLA*        PTSUNNY   82  77  83 NW9       30.03R
FORT WAYNE     MOSUNNY   85  69  58 W15G21    30.04S
HUNTINGTON*    PTSUNNY  N/A N/A N/A W13G20    30.04S
PERU/GRISSOM   MOSUNNY   85  71  62 W10       30.04F
MARION*        PTSUNNY   84  68  58 W14       30.06F

$$
INZ028>050-252100-
CENTRAL INDIANA

CITY           SKY/WX    TMP DP  RH WIND       PRES   REMARKS
LAFAYETTE      PTSUNNY   82  71  69 W9        30.04F
MUNCIE*        SUNNY     87  71  58 W15       30.05F
INDIANAPOLIS   MOSUNNY   89  70  53 W16       30.06F

$$
MIZ043>046-050>051-056>058-064>065-071>073-077>080-252100-
SOUTHWEST LOWER MICHIGAN

CITY           SKY/WX    TMP DP  RH WIND       PRES   REMARKS
BATTLE CREEK   PTSUNNY   80  71  74 W14       30.01S
BENTON HARBOR  MOSUNNY   77  69  76 NW8       30.04R
COLDWATER*     CLOUDY    80  69  70 W13G21    30.02R
HILLSDALE*     MOSUNNY   82  68  62 W10G18    30.01S
HOLLAND        SUNNY     77  66  68 W8        30.02F
GRAND RAPIDS   MOSUNNY   82  63  52 NW14      30.00R
KALAMAZOO      PTSUNNY   81  69  67 W12       30.01F
STURGIS*       CLOUDY    78  70  74 W8        30.02F
THREE RIVERS*  FAIR      82  71  70 W13       30.02F

$$
OHZ001>008-015>018-024>025-252100-
NORTHWEST OHIO

CITY           SKY/WX    TMP DP  RH WIND       PRES   REMARKS
WAUSEON*       FAIR      86  72  62 SW14G23   29.99F
DEFIANCE       SUNNY     86  67  52 W10G18    30.01S
FINDLAY        SUNNY     89  68  49 SW16G25   30.00S
TOLEDO EXPRESS MOSUNNY   87  70  56 W20G28    29.98F
TOLEDO METCALF MOSUNNY   88  71  57 W17G25    29.99S
LIMA           SUNNY     87  73  62 W18       30.03F

$$
AND FOR LAKE MICHIGAN COASTAL AND OPEN LAKE BUOY OBSERVATIONS

STATION/POSITION TEMP    WIND        PRES    VSBY  WAVE
                 AIR SEA DIR/SP/G                  HT/PER
                 (F)     (DEG/KT/KT) (MB)    (MI)  (FT/S)
CALUMET HARBOR    73      60/  5/  6 1016.9F
MICHIGAN CITY     75     260/  5/  5   N/A
BURNS HARBOR      74     360/  3/  4 1017.9S
SAINT JOSEPH      75     300/  6/  7 1017.6S
SOUTH LAKE BUOY   73 75  350/  8/ 10 1016.0F         1/ 3
4 MI NW BRIDGMAN  74 75  300/  6/  8 1016.9S         2/ 4
MICHIGAN CITY     74 74  340/  2/  4   N/A           1/ 2

$$
&&




USA.gov is the U.S. government's official web portal to all federal, state and local government web resources and services.